Wind_Speed
6 6 5 9 6 11 13 15 20 18 21 21 23 24 24 25 25 27 23 21 20 20 20 17 16 16 15 14 12 12 11 10 11 11 8 6 9 7 4 4 5 6 8
7 5 2 3 3 8 11 14 17 19 14 30 26 24 26 26 26 24 24 24 23 22 21 20 20 17 16 18 18 17 15 14 13 13 11 11 10 9 10 11 10 10 11
3 4 3 2 4 3 5 10 13 15 17 21 24 22 25 27 25 26 26 25 27 25 27 24 24 21 21 19 17 20 17 16 15 14 14 12 13 12 12 12 13 12 13
3 1 2 3 4 5 6 8 10 10 11 16 20 23 24 25 25 25 25 25 23 24 24 27 26 26 26 23 21 20 19 18 16 15 16 16 15 13 12 14 15 13 13
3 6 7 6 6 6 8 9 10 10 9 11 16 21 23 21 19 18 17 17 17 20 23 27 27 29 28 29 25 23 22 21 21 20 19 17 17 14 14 13 12 13 13
9 11 13 12 11 8 10 12 12 12 12 11 9 11 15 15 11 1 13 13 8 7 12 19 24 29 32 32 32 31 28 25 23 21 21 19 18 16 14 14 12 11 11
20 22 19 18 17 15 13 13 14 13 13 13 11 10 14 25 26 22 40 28 18 11 10 19 17 21 25 30 30 32 32 33 33 26 24 22 19 18 17 14 14 14 15
19 22 21 20 16 12 14 15 16 16 15 15 14 12 19 27 33 36 33 32 32 24 18 20 23 24 24 24 26 29 30 28 31 32 30 26 23 20 19 16 14 13 14
22 23 25 17 14 13 13 16 17 15 16 18 16 13 17 22 31 30 33 33 34 38 27 27 26 24 28 26 25 26 25 26 27 32 33 31 29 27 25 16 16 14 14
26 24 22 20 14 15 17 15 16 20 21 21 21 19 20 24 26 34 39 37 35 33 28 29 35 27 28 28 27 25 26 28 24 21 28 31 30 29 28 24 20 17 14
24 24 22 20 18 17 16 17 18 19 21 22 24 25 22 22 24 28 28 33 35 28 28 23 23 25 27 28 30 28 26 24 24 25 22 23 21 23 22 26 24 21 18
25 25 24 19 17 19 18 19 20 19 21 22 22 24 26 23 26 28 26 32 36 28 25 21 22 25 26 26 29 29 27 29 28 24 25 24 23 22 22 22 22 21 18
25 25 22 22 21 19 19 21 22 21 21 21 22 24 26 24 23 28 28 30 33 40 32 26 29 26 24 28 29 33 29 27 29 25 26 27 25 24 21 19 17 17 17
22 23 22 19 21 24 25 24 22 22 22 22 21 23 27 27 25 22 23 30 39 43 41 32 28 30 28 25 19 19 25 25 27 30 28 28 25 22 22 20 20 18 17
20 20 21 22 23 24 25 25 23 24 24 23 23 23 23 26 27 27 24 21 24 28 24 20 24 25 21 21 23 26 25 21 27 28 26 26 26 25 23 21 20 19 17
18 17 18 20 22 23 25 26 24 27 30 31 31 30 27 29 30 25 20 21 24 22 17 18 19 19 19 17 18 20 20 23 26 26 26 27 27 25 23 23 20 21 21
16 20 21 21 21 21 23 24 26 23 24 27 28 31 33 36 34 32 30 28 25 26 20 21 21 19 19 19 19 18 20 22 25 27 27 29 29 26 26 22 24 22 22
21 22 23 23 24 23 23 26 25 22 18 22 22 24 26 30 31 30 29 23 20 19 20 22 22 23 22 21 21 21 19 20 24 26 27 27 27 25 25 24 25 25 24
22 22 22 22 25 27 27 27 26 24 22 21 23 22 24 23 22 23 22 22 21 19 26 25 26 27 27 26 25 24 22 19 21 24 26 27 27 27 25 25 25 29 26
23 23 24 24 24 25 25 25 24 23 23 21 20 23 22 15 14 17 24 26 21 21 22 22 24 27 27 29 26 25 24 24 23 25 25 26 28 29 26 25 26 25 24
24 26 25 25 24 24 25 25 24 22 21 20 22 23 20 18 19 19 19 20 23 24 23 24 24 26 29 30 29 27 28 27 26 26 26 28 28 27 27 27 27 25 25
26 26 26 26 25 24 25 25 24 21 20 20 20 21 20 21 21 20 20 21 21 23 23 23 26 28 28 28 28 29 28 28 27 27 27 27 26 27 27 24 25 25 25
25 25 25 25 24 26 27 24 23 20 20 20 21 18 16 14 16 19 20 22 22 22 23 23 24 24 24 28 28 26 27 29 29 28 29 28 27 27 26 26 25 24 25
23 24 23 24 22 23 19 16 16 18 18 18 17 16 17 17 18 19 19 19 22 23 22 23 21 21 21 23 25 26 28 29 29 30 31 28 27 27 27 26 25 26 27
23 23 23 21 21 21 21 16 12 13 13 14 14 15 17 17 18 18 18 18 21 19 20 21 21 21 22 22 24 24 25 25 29 32 33 33 31 29 24 24 24 27 26
24 22 21 21 20 19 19 19 15 13 12 10 13 13 15 15 15 16 17 18 17 15 18 18 18 20 18 18 18 16 18 24 26 22 23 23 27 28 25 25 25 22 20
Wind_Direction
208 165 206 223 246 293 296 288 270 278 290 279 258 250 251 250 251 254 246 242 244 248 248 246 244 238 239 239 232 229 233 236 254 261 268 283 286 269 266 272 266 261 269
116 145 101 120 271 268 279 284 281 280 283 276 269 252 246 247 247 241 242 241 240 244 243 241 251 246 242 243 243 238 236 234 243 253 263 262 258 261 262 269 270 269 270
225 311 352 337 310 285 311 322 316 292 269 266 261 258 250 246 244 243 240 242 245 247 249 244 243 244 243 244 240 241 241 237 234 242 257 261 262 259 262 266 267 269 274
3 357 255 268 289 295 315 325 324 309 282 268 268 264 254 247 245 246 246 242 242 245 248 251 250 245 241 241 239 240 239 233 235 237 250 259 258 256 259 267 269 271 269
275 270 279 292 287 276 290 301 306 307 300 293 274 262 258 241 240 248 249 259 259 257 256 257 255 255 255 248 238 241 236 236 241 243 246 250 251 247 253 267 266 277 268
311 305 305 306 302 285 285 287 286 293 301 304 287 274 251 202 158 68 236 217 225 268 291 270 265 265 262 260 255 248 242 237 236 239 244 243 245 248 257 253 260 266 273
310 308 309 309 308 306 307 302 287 285 293 297 291 251 212 197 197 213 224 226 226 219 250 270 268 265 264 262 260 253 247 248 247 240 243 241 250 250 247 246 247 248 257
288 289 293 295 291 296 308 305 296 292 287 284 284 262 225 213 220 235 217 224 242 229 221 252 250 247 253 254 254 249 247 246 243 241 240 244 247 246 246 251 247 246 259
292 290 290 282 281 293 298 298 291 287 286 279 277 264 237 235 223 228 238 251 252 258 243 230 246 237 235 245 249 248 244 245 243 245 247 245 247 252 252 247 239 234 245
283 286 285 285 272 286 292 283 282 282 277 276 272 264 256 255 252 251 248 247 252 250 256 243 245 234 230 228 237 243 246 245 239 236 237 239 241 244 245 238 237 223 231
289 288 281 274 271 283 279 277 278 274 274 271 266 263 259 257 261 264 260 246 243 248 250 253 249 252 237 236 232 237 244 248 243 237 235 236 236 233 228 227 221 224 239
295 293 285 273 276 281 276 276 271 263 264 267 264 261 258 258 257 260 254 248 246 241 242 246 252 262 263 251 244 239 255 249 249 243 238 229 226 223 217 214 218 223 229
296 290 285 287 285 282 280 279 273 262 260 262 258 255 256 252 253 258 259 249 245 245 251 257 254 267 262 261 263 264 261 244 233 241 237 235 230 226 220 214 213 217 220
292 292 289 284 284 285 284 279 273 268 262 258 256 254 256 255 248 248 250 250 250 255 258 253 255 260 262 267 267 265 254 243 232 232 236 240 236 222 214 209 207 204 206
295 292 290 288 287 286 281 278 272 267 262 261 256 254 255 256 253 246 247 254 251 245 244 239 248 254 253 252 252 254 250 246 235 235 236 231 230 222 214 207 208 202 205
292 294 294 294 290 286 284 283 278 272 271 267 261 256 258 260 261 260 263 265 260 259 243 235 231 231 236 238 241 247 245 247 243 239 234 233 228 219 210 203 207 206 206
287 292 292 291 287 284 279 276 282 281 275 267 266 260 256 258 259 263 263 259 259 255 237 239 241 234 225 227 234 243 248 245 240 236 232 232 227 220 212 202 204 204 209
299 288 285 287 282 283 279 275 270 269 269 269 268 264 261 256 255 258 257 254 253 247 232 230 231 233 230 229 237 240 243 244 237 233 231 226 226 217 210 203 199 204 206
299 292 293 291 286 285 286 279 271 259 257 263 268 267 267 260 251 250 250 239 231 233 239 232 228 228 231 234 236 239 244 248 245 232 231 225 223 214 213 208 201 203 196
300 294 293 287 286 286 283 281 273 260 257 254 252 255 260 247 239 235 234 234 235 232 237 234 231 230 228 229 230 238 243 247 244 234 228 228 214 210 211 206 199 192 191
299 296 294 288 282 280 279 280 274 264 255 257 252 256 252 238 249 243 241 234 231 233 237 236 234 228 228 230 233 238 247 251 240 225 217 217 211 199 203 207 200 195 189
303 298 293 287 284 280 278 275 279 259 254 253 252 256 249 240 249 254 246 239 238 239 242 239 235 233 231 231 233 241 242 236 229 217 211 211 204 201 200 192 190 190 186
311 305 301 297 290 287 277 271 273 260 250 245 249 249 249 232 239 245 248 246 245 242 242 242 238 236 235 232 231 230 231 233 228 215 213 205 201 195 191 180 186 189 182
317 313 310 310 307 310 311 285 273 268 257 251 249 256 257 256 251 249 251 249 247 246 243 235 232 232 233 231 231 237 240 241 229 213 209 202 195 193 183 180 190 191 183
321 321 318 320 318 315 316 322 321 314 290 272 271 271 270 262 258 252 248 247 248 247 242 234 230 229 230 230 235 243 249 244 218 213 214 206 190 182 176 176 186 189 184
331 325 323 324 322 321 321 319 319 319 318 315 310 288 273 265 258 256 255 252 241 238 242 239 241 238 230 242 242 252 247 212 214 207 197 164 164 169 176 178 180 175 169
Height
805 808 809 809 809 808 806 806 806 808 809 809 812 811 812 813 815 818 821 823 824 826 829 829 830 833 834 836 837 837 838 838 837 835 837 836 835 835 835 835 835 835 836
805 808 809 808 807 807 805 804 805 805 800 799 805 804 804 806 808 809 812 815 816 818 821 823 825 828 828 829 832 833 833 834 834 834 833 834 834 834 833 832 832 833 833
803 803 804 804 806 806 804 802 798 797 796 796 797 796 798 799 800 802 804 806 810 812 813 815 818 822 824 824 826 828 829 830 830 830 830 830 830 831 830 829 828 828 828
801 801 803 803 803 802 800 799 796 794 792 790 789 787 789 791 792 796 798 799 800 802 804 807 811 814 817 819 820 822 823 824 825 825 825 825 826 826 826 825 824 824 824
802 802 802 800 799 798 797 796 794 792 790 788 786 783 782 785 788 795 797 798 796 795 797 799 802 804 808 811 814 815 817 818 818 818 818 819 820 820 820 820 820 820 819
798 797 797 796 796 796 795 793 791 789 787 785 783 780 779 782 776 773 795 790 788 787 790 791 793 796 799 800 802 806 809 810 811 811 811 810 812 814 815 815 815 816 814
795 794 794 792 790 790 789 788 787 784 783 781 779 777 777 777 773 766 772 776 778 769 773 780 783 786 789 791 793 796 800 801 803 806 806 805 807 808 810 810 810 811 811
794 792 791 790 789 787 785 783 782 780 779 777 775 773 772 772 773 769 766 766 764 758 755 764 768 772 779 783 786 788 790 792 792 796 797 799 800 802 803 805 804 805 806
789 786 784 784 784 783 783 781 778 776 774 772 769 768 764 762 762 762 762 758 753 752 749 746 756 758 763 771 777 780 782 783 784 785 789 791 792 794 797 800 800 799 798
783 781 780 778 777 776 776 775 774 771 768 767 763 761 759 755 754 752 752 752 748 744 748 738 747 748 752 757 765 771 773 774 778 779 779 782 784 786 788 792 794 793 793
778 775 773 771 769 767 766 767 766 764 761 759 756 753 751 748 746 743 743 742 738 743 741 741 746 745 747 750 755 760 763 769 771 773 774 776 777 777 780 781 783 786 785
769 766 765 764 762 761 759 759 758 756 754 751 748 745 742 741 738 736 737 735 736 735 735 736 738 742 745 745 753 753 756 761 765 766 766 766 769 771 772 773 775 777 779
762 758 756 755 754 753 752 751 750 747 745 742 740 737 734 733 731 728 727 727 729 731 730 731 733 734 738 744 745 747 749 753 756 758 758 758 760 763 766 767 768 770 772
756 753 750 747 745 744 742 741 739 737 735 732 730 728 724 723 724 724 722 722 723 723 721 725 727 730 732 734 736 739 742 745 747 747 750 752 754 756 759 760 762 763 767
750 747 744 741 738 735 733 731 730 728 727 724 722 720 717 712 713 717 718 717 716 716 720 720 722 721 722 727 730 734 736 737 738 740 742 743 746 748 750 752 754 757 759
746 743 739 737 733 729 725 721 720 718 716 715 714 714 710 706 705 707 710 712 712 712 713 714 714 716 717 720 724 727 726 728 730 732 733 734 737 740 742 744 748 750 752
741 738 735 731 727 723 718 714 709 707 706 704 703 702 702 699 698 698 701 703 705 706 705 708 709 711 712 715 717 717 718 720 721 722 723 725 727 731 736 736 740 744 746
735 731 727 722 719 715 711 706 702 699 697 696 694 692 692 692 691 690 694 696 697 698 699 701 703 704 704 706 707 708 710 711 712 713 713 716 718 721 725 729 732 735 738
728 723 719 715 711 707 703 698 694 690 689 688 686 684 683 683 684 685 685 686 687 689 691 692 692 694 697 697 698 700 701 701 703 704 705 706 709 712 717 721 725 726 728
720 715 712 708 703 698 694 688 683 680 679 679 678 677 675 677 676 675 676 678 678 679 680 681 681 685 686 688 689 691 691 692 693 694 695 698 698 702 708 712 715 719 722
712 706 703 699 695 690 685 681 675 672 669 669 669 667 667 668 666 665 666 667 667 670 669 671 671 674 674 675 677 679 680 681 683 684 684 687 690 693 699 704 706 711 714
706 700 695 690 686 681 677 673 667 663 661 660 660 659 659 659 658 657 658 658 658 658 658 660 661 661 661 663 665 667 669 670 671 672 673 679 681 686 692 696 700 704 706
701 695 688 683 678 673 668 664 660 656 654 652 650 649 649 651 652 652 651 651 651 651 651 650 649 650 650 652 653 656 658 659 660 663 667 670 675 678 684 688 693 697 700
697 691 684 679 674 668 659 654 652 650 647 645 643 641 641 640 641 642 643 644 644 644 644 641 641 642 643 645 646 648 648 649 651 653 659 662 666 672 677 682 686 693 696
693 687 681 676 671 664 658 649 648 646 643 640 638 637 635 634 633 633 634 636 636 635 634 635 635 637 637 637 638 638 639 640 643 646 651 654 660 665 669 678 684 690 693
691 685 679 674 669 664 658 654 649 646 642 639 637 634 631 628 628 628 627 627 627 627 626 627 626 628 630 630 632 629 630 632 637 640 644 646 654 663 670 676 681 687 692